Vorticity
6 5 7 4 8 6 6 13 4 4 5 4 2 20 10 18 13 10 10 11 12 13 12 9 9 9 8 7 6 6 5 5 5 7 7 7 7 7 7 8 8 8 7 6
3 6 10 12 10 5 -6 8 16 12 10 19 22 17 12 12 15 15 12 9 8 8 7 7 6 6 7 7 8 7 6 5 5 5 5 5 4 4 4 3 3 3 4 4
8 10 8 3 4 10 -3 14 17 17 30 12 12 13 14 11 8 5 5 6 7 8 8 8 8 7 6 5 5 5 5 4 4 4 5 6 6 7 6 6 6 6 6 7
10 9 3 6 9 16 18 18 24 30 17 13 10 7 5 4 6 8 7 7 6 5 4 3 3 4 4 4 4 4 6 7 7 7 6 5 4 5 5 4 5 6 7 8
2 2 4 19 33 32 25 16 10 8 9 10 11 9 8 7 6 7 6 3 1 2 4 4 4 5 6 7 7 6 5 5 5 4 3 4 5 7 8 9 10 9 10 12
23 17 18 12 4 4 9 6 6 7 8 8 7 6 10 5 3 2 3 4 4 5 6 7 7 7 5 4 4 4 4 5 6 7 8 7 9 9 10 11 13 15 16 17
14 15 13 7 7 9 9 8 3 3 4 5 4 5 3 4 3 2 2 4 7 7 6 5 4 3 4 5 6 6 8 8 8 8 8 10 11 12 14 15 14 13 12 12
8 9 10 5 5 1 1 4 4 5 5 3 3 6 8 7 6 5 6 7 5 3 4 5 6 7 7 8 8 7 7 7 9 11 11 13 14 13 13 13 13 13 14 15
4 5 6 5 4 3 4 6 7 7 6 6 7 8 8 7 6 4 3 5 5 6 8 8 8 8 8 8 10 10 10 12 13 13 14 15 15 15 14 13 14 14 16 18
10 8 8 6 5 4 5 5 6 6 7 7 6 6 6 6 6 7 9 9 9 9 9 9 9 10 10 10 10 11 12 14 14 15 15 14 13 13 13 15 16 16 16 16
8 6 6 5 6 6 6 6 5 5 6 7 6 6 8 9 10 10 10 10 10 11 11 11 10 10 10 11 13 15 16 16 16 15 15 14 13 13 13 14 14 12 11 12
5 3 3 4 5 5 6 7 7 7 8 10 10 10 9 9 9 11 11 11 11 10 9 9 10 12 14 16 16 15 15 14 13 12 12 11 11 10 10 9 9 9 9 10
9 9 10 9 10 10 10 10 9 9 10 10 11 11 11 10 11 11 10 10 10 10 11 14 16 16 15 14 13 11 11 11 10 10 9 8 8 8 7 8 8 7 7 8
10 9 9 9 9 10 11 11 12 12 12 13 14 15 14 12 11 10 11 12 15 16 16 15 13 12 10 8 9 9 9 7 7 7 7 7 6 6 7 6 6 7 9 10
13 14 14 15 16 17 17 18 16 14 13 12 12 12 12 14 16 16 15 13 10 8 7 6 7 7 8 8 8 6 5 5 5 5 5 6 6 7 8 9 10 10 11 10
21 18 15 14 12 11 11 11 11 12 13 14 15 17 15 11 8 7 7 7 7 8 8 8 8 6 5 5 5 4 4 4 5 7 9 11 12 12 13 13 13 13 13 12
10 10 11 12 15 19 20 18 16 13 11 9 8 10 10 10 10 10 9 8 7 6 5 4 4 4 5 4 3 5 9 12 14 15 16 16 17 19 18 19 21 23 25 30
10 10 10 9 8 8 8 9 9 9 9 8 8 8 7 6 6 5 4 3 4 5 5 6 7 7 10 14 16 16 18 21 23 25 28 30 30 30 29 29 29 27 27 27
13 13 12 12 10 9 8 7 6 6 6 6 6 6 7 7 8 8 9 10 10 12 13 15 15 17 19 21 24 27 28 28 27 26 25 24 24 24 24 23 22 22 21 23
7 7 7 7 8 8 9 10 11 11 10 11 11 11 12 12 12 13 14 15 16 18 22 23 26 28 27 25 22 19 17 18 19 18 19 19 19 19 19 19 19 19 20 19
12 13 13 13 14 15 15 15 15 15 15 16 17 18 18 18 19 20 23 26 26 27 26 24 21 18 18 21 21 21 21 20 18 17 18 18 19 19 18 17 17 19 17 18
13 13 13 14 15 16 17 17 18 19 19 19 20 21 23 24 26 27 26 22 20 20 21 22 21 21 22 21 23 25 23 21 19 18 19 17 15 17 20 17 16 15 16 19
18 19 20 20 19 20 21 22 23 23 24 24 23 22 22 21 20 18 18 19 19 20 21 19 19 20 21 23 25 22 20 20 19 18 18 17 17 13 15 19 18 14 12 14
22 24 26 26 25 25 23 23 23 22 20 18 17 18 17 15 17 16 18 18 18 17 17 17 17 16 15 18 16 16 16 17 19 19 16 17 18 16 15 16 17 19 18 15
24 23 22 21 21 20 19 17 16 16 16 17 17 17 15 15 14 14 15 16 17 16 14 12 12 12 12 12 14 15 15 16 17 17 17 16 17 17 16 17 17 18 19 19
15 14 14 14 14 15 15 15 16 16 17 17 16 15 16 15 14 14 14 13 13 13 12 12 12 11 11 13 13 13 13 13 14 15 15 14 14 14 15 15 15 16 17 17
10 9 10 11 11 11 10 9 10 12 14 16 17 14 14 13 12 13 15 15 15 15 14 13 13 13 13 13 13 14 14 14 14 14 14 14 12 12 12 11 11 11 12 13
Height
5613 5614 5616 5618 5620 5621 5622 5624 5622 5626 5627 5628 5627 5629 5631 5633 5635 5637 5638 5640 5642 5643 5644 5646 5648 5649 5650 5651 5651 5652 5652 5653 5653 5654 5654 5654 5654 5654 5653 5653 5653 5652 5651 5651
5602 5603 5604 5605 5608 5609 5610 5611 5611 5613 5614 5616 5616 5616 5619 5621 5623 5626 5627 5629 5630 5632 5633 5634 5635 5637 5637 5638 5639 5639 5639 5639 5639 5639 5638 5638 5638 5637 5636 5636 5636 5635 5634 5633
5591 5592 5592 5591 5598 5599 5598 5598 5598 5599 5604 5600 5602 5605 5608 5610 5612 5614 5615 5617 5618 5620 5621 5622 5623 5624 5624 5625 5625 5625 5625 5625 5624 5624 5623 5622 5621 5619 5618 5617 5616 5615 5614 5613
5579 5580 5578 5582 5585 5584 5583 5585 5586 5588 5589 5590 5593 5596 5598 5600 5601 5602 5604 5605 5605 5606 5607 5608 5609 5609 5609 5609 5609 5609 5608 5607 5606 5605 5604 5603 5601 5600 5598 5597 5596 5594 5592 5591
5565 5566 5568 5568 5571 5572 5571 5576 5576 5578 5581 5583 5584 5585 5587 5588 5589 5590 5591 5591 5592 5593 5593 5593 5593 5592 5592 5591 5591 5590 5589 5588 5587 5586 5584 5583 5581 5578 5576 5574 5572 5570 5569 5568
5552 5552 5554 5557 5559 5561 5562 5564 5567 5569 5570 5572 5573 5574 5577 5577 5577 5577 5578 5578 5578 5578 5577 5576 5576 5575 5574 5574 5573 5571 5570 5568 5566 5564 5563 5560 5558 5555 5553 5551 5549 5546 5544 5542
5543 5542 5543 5547 5550 5550 5551 5559 5557 5558 5559 5560 5562 5564 5564 5563 5564 5563 5563 5562 5561 5561 5559 5559 5558 5556 5555 5553 5552 5550 5547 5545 5543 5541 5539 5537 5534 5532 5529 5527 5525 5523 5521 5519
5534 5533 5533 5538 5538 5539 5541 5542 5543 5545 5546 5547 5548 5548 5549 5548 5547 5546 5545 5544 5543 5542 5540 5539 5537 5535 5533 5531 5529 5527 5525 5522 5520 5517 5515 5513 5511 5508 5506 5504 5503 5500 5498 5497
5525 5525 5523 5522 5525 5526 5527 5527 5528 5529 5530 5531 5531 5532 5531 5530 5529 5528 5527 5526 5524 5522 5520 5518 5516 5514 5512 5510 5507 5504 5502 5499 5496 5494 5491 5489 5487 5485 5483 5481 5479 5478 5476 5476
5512 5511 5511 5510 5510 5510 5511 5511 5512 5512 5512 5512 5512 5511 5511 5511 5510 5508 5506 5505 5503 5501 5499 5496 5494 5491 5488 5486 5483 5480 5477 5475 5472 5470 5468 5465 5464 5463 5461 5460 5458 5457 5456 5456
5497 5497 5497 5497 5496 5495 5495 5494 5494 5494 5493 5493 5492 5490 5489 5488 5487 5486 5484 5482 5480 5478 5476 5474 5471 5469 5466 5463 5460 5457 5454 5451 5449 5447 5445 5444 5442 5441 5440 5439 5438 5438 5437 5437
5480 5480 5480 5481 5480 5479 5478 5477 5476 5475 5474 5472 5471 5470 5468 5466 5465 5464 5462 5460 5458 5456 5453 5451 5448 5446 5442 5440 5437 5434 5431 5430 5428 5426 5425 5423 5421 5421 5419 5419 5418 5418 5417 5416
5462 5461 5462 5462 5461 5460 5460 5459 5457 5456 5454 5452 5451 5449 5448 5446 5444 5441 5440 5437 5435 5432 5430 5427 5425 5422 5419 5417 5415 5413 5410 5408 5407 5405 5403 5402 5400 5399 5400 5397 5397 5397 5396 5396
5443 5443 5442 5441 5441 5440 5439 5438 5437 5435 5434 5432 5431 5429 5426 5424 5422 5419 5417 5414 5411 5409 5406 5404 5402 5400 5397 5395 5393 5391 5389 5387 5385 5382 5382 5379 5378 5377 5375 5374 5375 5375 5373 5374
5424 5423 5422 5421 5420 5419 5418 5417 5416 5415 5413 5411 5409 5408 5405 5403 5400 5397 5394 5392 5389 5387 5385 5383 5380 5377 5376 5374 5371 5369 5366 5363 5360 5358 5357 5354 5352 5351 5350 5348 5348 5349 5351 5351
5405 5404 5403 5402 5401 5400 5398 5397 5396 5394 5392 5390 5389 5386 5383 5381 5379 5377 5375 5372 5370 5368 5365 5362 5358 5356 5353 5350 5347 5345 5341 5338 5335 5332 5329 5327 5324 5322 5321 5320 5320 5320 5322 5324
5389 5388 5387 5385 5383 5382 5380 5378 5376 5374 5372 5370 5368 5366 5364 5362 5359 5357 5355 5352 5349 5346 5343 5339 5336 5332 5329 5325 5321 5318 5315 5311 5306 5303 5300 5298 5295 5295 5292 5292 5292 5291 5291 5295
5374 5372 5370 5368 5366 5364 5362 5360 5357 5355 5353 5351 5348 5346 5343 5341 5339 5335 5332 5329 5325 5322 5318 5315 5311 5307 5304 5298 5293 5290 5286 5281 5278 5275 5272 5269 5268 5267 5266 5265 5265 5266 5267 5270
5358 5355 5353 5350 5348 5345 5343 5340 5338 5335 5332 5330 5327 5324 5321 5318 5315 5312 5308 5304 5300 5297 5293 5289 5285 5281 5277 5271 5266 5263 5259 5255 5253 5250 5248 5247 5246 5246 5245 5246 5246 5247 5249 5252
5341 5338 5334 5331 5328 5325 5322 5320 5317 5313 5310 5307 5304 5301 5297 5294 5291 5287 5284 5280 5274 5271 5267 5262 5259 5255 5251 5246 5243 5240 5238 5235 5233 5231 5230 5229 5229 5229 5229 5229 5230 5232 5234 5237
5322 5318 5314 5311 5307 5303 5300 5297 5294 5290 5287 5284 5281 5277 5274 5270 5266 5263 5259 5256 5251 5248 5244 5241 5237 5233 5229 5225 5223 5221 5219 5217 5215 5214 5214 5214 5214 5214 5214 5215 5216 5218 5220 5224
5302 5298 5294 5290 5286 5282 5279 5276 5273 5269 5266 5263 5259 5255 5252 5248 5245 5243 5239 5237 5232 5229 5226 5222 5219 5215 5211 5208 5206 5204 5201 5200 5199 5199 5200 5200 5200 5200 5200 5202 5203 5205 5207 5210
5283 5279 5275 5271 5267 5264 5260 5257 5253 5250 5246 5243 5240 5237 5234 5231 5228 5226 5223 5220 5217 5213 5210 5207 5204 5201 5197 5195 5192 5189 5187 5186 5185 5186 5186 5186 5187 5187 5188 5189 5190 5192 5195 5197
5266 5262 5258 5254 5251 5247 5244 5241 5237 5234 5231 5228 5225 5223 5221 5218 5215 5213 5210 5206 5203 5200 5198 5195 5192 5189 5186 5185 5181 5178 5176 5175 5174 5174 5174 5174 5175 5175 5176 5177 5178 5180 5182 5185
5253 5249 5245 5242 5239 5236 5232 5229 5226 5223 5220 5217 5214 5211 5209 5206 5204 5200 5197 5194 5192 5190 5187 5184 5182 5179 5176 5174 5172 5170 5168 5166 5165 5165 5164 5164 5165 5165 5166 5167 5168 5169 5171 5172
5243 5240 5237 5234 5231 5227 5223 5220 5216 5212 5210 5207 5203 5200 5198 5196 5193 5190 5186 5183 5181 5179 5177 5174 5172 5169 5167 5165 5163 5161 5159 5157 5157 5156 5156 5156 5156 5156 5157 5158 5159 5159 5160 5161
5235 5232 5229 5225 5222 5219 5215 5211 5208 5204 5200 5197 5195 5190 5188 5186 5183 5181 5178 5175 5171 5169 5167 5164 5161 5159 5157 5155 5153 5152 5150 5149 5148 5147 5147 5147 5147 5148 5149 5149 5150 5150 5151 5152